[[{"header":{"parameterUnit":"m.s-1","parameterCategory":1,"la1":30.2991,"la2":30.254,"lo1":-89.0895,"lo2":-89.0444,"dy":0.0017,"dx":0.0017,"nx":28,"ny":28,"refTime":"2024-08-10T03:00:00:Z","depth":0,"parameterNumber":2,"parameterNumberName":"U-component_of_WINDS"},"data":[0,0,0,0,0,0,0,0,0,0,0,0,0,0,0,0,0,0,0,0,0,0,0,0,0,0,0,0,0,0,0,0,0,0,0,0,0,0,0,0,0,0,0,0,0,0,0,0,0,0,0,0,0,0,0,0,0,0,-1.942,-1.942,0,-1.9469,-1.9469,-1.947,-1.9388,-1.9385,-1.9382,-1.9379,-1.943,-1.9434,-1.9438,0,0,0,0,0,0,0,0,0,0,0,0,0,-1.9254,-1.9257,-1.942,-1.942,-1.9421,-1.9469,-1.9469,-1.947,-1.9388,-1.9385,-1.9381,-1.9378,-1.9429,-1.9433,-1.9438,0,0,0,0,0,0,0,0,0,0,0,0,0,-1.9317,-1.9258,-1.942,-1.9386,-1.9383,-1.9469,-1.9469,-1.947,-1.9389,-1.9385,-1.9381,-1.9377,-1.9427,-1.9433,-1.9439,-1.9559,0,0,-1.9457,-1.9459,0,0,0,0,0,0,0,0,-1.9313,-1.9323,-1.939,-1.9388,-1.9386,-1.9418,-1.9429,-1.95,-1.939,-1.9387,-1.9379,-1.9375,-1.9429,-1.9435,-1.9453,-1.9562,-1.9564,-1.9457,-1.9461,-1.9463,-1.9465,0,0,0,0,0,0,0,-1.9309,-1.932,-1.9439,-1.9391,-1.9389,-1.9368,-1.9372,-1.9442,-1.9431,-1.9387,-1.9381,-1.9388,-1.9427,-1.9448,-1.9454,-1.9564,-1.9457,-1.9462,-1.9466,-1.9468,-1.9773,-1.9777,0,0,0,0,0,0,-1.9309,-1.9317,-1.9438,-1.9441,-1.9338,-1.9374,-1.9379,-1.9412,-1.943,-1.9429,-1.9391,-1.9384,-1.944,-1.9447,-1.9455,-1.9597,-1.9463,-1.9469,-1.9472,-1.9768,-1.9774,-1.9778,0,0,0,0,0,0,-1.9306,-1.932,-1.9436,-1.9377,-1.939,-1.9382,-1.9419,-1.9415,-1.9435,-1.9433,-1.9431,-1.9415,-1.9437,-1.9447,-1.9534,-1.9598,-1.9472,-1.9477,-1.9763,-1.977,-1.9776,-1.9882,0,0,0,0,0,0,-1.9301,-1.932,-1.9366,-1.9379,-1.9394,-1.9514,-1.9423,-1.9419,-1.9446,-1.9436,-1.9455,-1.9453,-1.9434,-1.9525,-1.954,-1.9604,-1.9482,-1.9757,-1.9766,-1.9774,-1.9873,-1.9892,-1.9908,0,0,0,0,0,-1.9296,-1.9394,-1.9369,-1.9384,-1.9452,-1.9518,-1.9526,-1.9502,-1.9451,-1.9497,-1.9496,-1.9453,-1.9588,-1.9535,-1.955,-1.9617,-1.9753,-1.9763,-1.9773,-1.9865,-1.9888,-1.9908,0,0,0,0,0,0,-1.939,-1.9396,-1.9367,-1.9473,-1.9496,-1.9504,-1.9562,-1.9527,-1.9565,-1.9555,-1.9522,-1.9527,-1.9621,-1.9627,-1.9568,-1.9734,-1.9662,-1.9676,-1.9727,-1.9748,-1.9766,-1.9762,-1.9486,0,0,0,0,0,-1.9423,-1.9476,-1.9478,-1.9571,-1.9584,-1.9571,-1.9599,-1.9578,-1.96,-1.9609,-1.9614,-1.9637,-1.9684,-1.9716,-1.976,-1.9873,-1.9875,-1.9926,-1.9944,-1.9958,-1.9971,-2.003,-2.0053,-1.9812,-1.9812,-1.9812,0,0,-1.9492,-1.9501,-1.9537,-1.9591,-1.9606,-1.9662,-1.958,-1.9643,-1.9684,-1.9619,-1.9701,-1.9705,-1.9728,-1.9829,-1.9873,-1.9837,-2.0037,-1.9971,-1.9983,-1.9987,-2.0043,-2.0066,-2.0086,-1.9819,-1.9818,-1.9816,0,0,-1.9646,-1.9659,-1.9737,-1.9754,-1.9777,-1.9767,-1.9786,-1.98,-1.98,-1.9882,-1.9834,-1.9882,-1.9964,-1.9982,-2.0003,-2.0162,-2.0123,-2.0176,-2.0268,-2.0327,-2.0346,-2.0362,-2.0419,-2.044,-2.0189,-2.0189,-2.0189,0,-1.9729,-1.9812,-1.9782,-1.9848,-1.9873,-1.9816,-1.9895,-1.9912,-1.9949,-1.9967,-1.9926,-2.0027,-2.0039,-2.0142,-2.0181,-2.0199,-2.0219,-2.0175,-2.0345,-2.0362,-2.0377,-2.043,-2.0452,-2.0195,-2.0195,-2.0194,-2.0193,0,-1.9912,-1.997,-2.0031,-2.0067,-2.0098,-2.0171,-2.0152,-2.0187,-2.0162,-2.0157,-2.024,-2.0252,-2.0296,-2.0319,-2.0296,-2.0419,-2.0395,-2.035,-2.0278,-2.0407,-2.0456,-2.0477,-2.0205,-2.0202,-2.02,-2.0199,0,0,-2.0129,-2.0147,-2.017,-2.0185,-2.0206,-2.025,-2.0319,-2.0362,-2.0392,-2.0419,-2.0476,-2.0546,-2.0504,-2.0526,-2.0505,-2.0556,-2.0681,-2.0504,-2.0504,-2.0537,-2.0816,-2.085,-2.0875,-2.0655,-2.0658,-2.0661,-2.0814,0,-2.0283,-2.0402,-2.0377,-2.0494,-2.0547,-2.0492,-2.0552,-2.0571,-2.0567,-2.0611,-2.0606,-2.0656,-2.0597,-2.061,-2.0658,-2.0655,-2.0736,-2.0644,-2.0707,-2.071,-2.0704,-2.0901,-2.0938,-2.1081,-2.0833,-2.0837,-2.0839,0,-2.0479,-2.0512,-2.0635,-2.0645,-2.0667,-2.0721,-2.0758,-2.08,-2.082,-2.0813,-2.0838,-2.0806,-2.0873,-2.0799,-2.0891,-2.0829,-2.0853,-2.0855,-2.086,-2.0866,-2.0783,-2.0912,-2.1127,-2.1149,-2.0869,-2.0867,-2.0865,0,-2.0625,-2.0701,-2.0783,-2.0798,-2.0813,-2.0852,-2.086,-2.0875,-2.0902,-2.0934,-2.0951,-2.0991,-2.1012,-2.1043,-2.1022,-2.097,-2.1118,-2.1042,-2.1114,-2.1115,-2.1149,-2.1147,-2.1371,-2.1164,-2.1163,-2.1163,-2.1162,0,-2.08,-2.0877,-2.0849,-2.09,-2.0984,-2.0954,-2.1038,-2.1039,-2.1053,-2.1103,-2.1057,-2.1105,-2.1074,-2.1119,-2.1103,-2.1181,-2.1191,-2.1188,-2.1183,-2.1192,-2.1193,-2.1208,-2.1198,-2.1168,-2.1167,-2.1166,-2.1165,0,-2.0979,-2.0963,-2.1049,-2.1056,-2.1059,-2.1121,-2.1126,-2.1173,-2.1164,-2.1228,-2.1241,-2.1228,-2.1279,-2.126,-2.1314,-2.1303,-2.1403,-2.1385,-2.1397,-2.1393,-2.1466,-2.146,-2.1708,-2.1739,-2.1511,-2.1514,-2.1515,0,-2.1092,-2.115,-2.1162,-2.1192,-2.1203,-2.1252,-2.1279,-2.125,-2.128,-2.1306,-2.135,-2.1396,-2.1431,-2.1514,-2.1509,-2.1549,-2.1532,-2.1616,-2.1538,-2.1545,-2.1533,-2.1531,-2.1536,-2.1632,-2.1635,-2.1637,-2.1639,0,-2.1294,-2.1283,-2.1324,-2.1362,-2.1396,-2.1424,-2.1449,-2.1476,-2.1448,-2.1484,-2.1535,-2.1562,-2.1616,-2.1662,-2.1698,-2.1705,-2.1668,-2.1663,-2.1682,-2.1693,-2.1698,-2.1696,-2.144,-2.1658,-2.1656,-2.1655,-2.1654,-2.1653,-2.1444,-2.1492,-2.1508,-2.1555,-2.157,-2.1593,-2.1638,-2.1634,-2.1676,-2.1718,-2.1698,-2.1757,-2.1773,-2.1817,-2.1829,-2.1874,-2.1841,-2.1869,-2.1876,-2.1883,-2.1893,-2.169,-2.188,-2.188,-2.1879,-2.1879,-2.1878,0,-2.1644,-2.1651,-2.1694,-2.1729,-2.1766,-2.1726,-2.1751,-2.1784,-2.1836,-2.1854,-2.189,-2.1947,-2.1991,-2.1989,-2.203,-2.2066,-2.205,-2.2078,-2.2075,-2.2077,-2.192,-2.19,-2.209,-2.209,-2.209,-2.209,-2.209,-2.209,-2.1752,-2.1832,-2.1823,-2.1909,-2.1915,-2.1972,-2.199,-2.2011,-2.2025,-2.2091,-2.2128,-2.2126,-2.2136,-2.2176,-2.2214,-2.2212,-2.2229,-2.2264,-2.2256,-2.2109,-2.2088,-2.2068,-2.2049,-2.2268,-2.2268,-2.2409,-2.2411,-2.2412]},{"header":{"parameterUnit":"m.s-1","parameterCategory":1,"la1":30.2991,"la2":30.254,"lo1":-89.0895,"lo2":-89.0444,"dy":0.0017,"dx":0.0017,"nx":28,"ny":28,"refTime":"2024-08-10T03:00:00:Z","depth":0,"parameterNumber":3,"parameterNumberName":"V-component_of_WINDS"},"data":[0,0,0,0,0,0,0,0,0,0,0,0,0,0,0,0,0,0,0,0,0,0,0,0,0,0,0,0,0,0,0,0,0,0,0,0,0,0,0,0,0,0,0,0,0,0,0,0,0,0,0,0,0,0,0,0,0,0,-3.249,-3.2491,0,-3.2581,-3.2582,-3.2583,-3.2567,-3.2566,-3.2564,-3.2562,-3.2651,-3.2655,-3.2659,0,0,0,0,0,0,0,0,0,0,0,0,0,-3.2296,-3.23,-3.2489,-3.2491,-3.2492,-3.2581,-3.2582,-3.2583,-3.2567,-3.2565,-3.2564,-3.2562,-3.265,-3.2655,-3.2659,0,0,0,0,0,0,0,0,0,0,0,0,0,-3.2383,-3.2301,-3.2489,-3.2495,-3.2496,-3.258,-3.2582,-3.2583,-3.2568,-3.2565,-3.2563,-3.2561,-3.2649,-3.2654,-3.266,-3.2743,0,0,-3.2677,-3.268,0,0,0,0,0,0,0,0,-3.2378,-3.239,-3.2493,-3.2495,-3.2496,-3.256,-3.2546,-3.2637,-3.2568,-3.254,-3.2562,-3.256,-3.2623,-3.263,-3.2653,-3.2747,-3.2751,-3.2678,-3.2681,-3.2684,-3.2686,0,0,0,0,0,0,0,-3.2372,-3.2386,-3.2525,-3.2494,-3.2496,-3.2491,-3.2501,-3.2563,-3.2594,-3.2543,-3.2542,-3.2553,-3.2623,-3.2647,-3.2654,-3.2752,-3.2678,-3.2683,-3.2686,-3.2689,-3.2917,-3.292,0,0,0,0,0,0,-3.2365,-3.2381,-3.2523,-3.2528,-3.243,-3.2496,-3.2507,-3.2542,-3.2593,-3.2598,-3.2555,-3.2552,-3.2638,-3.2648,-3.2658,-3.2757,-3.2684,-3.2689,-3.2693,-3.2915,-3.2918,-3.2921,0,0,0,0,0,0,-3.2361,-3.2378,-3.2519,-3.2455,-3.2472,-3.2502,-3.2541,-3.2545,-3.2569,-3.2602,-3.2607,-3.2574,-3.2637,-3.2649,-3.2722,-3.276,-3.2692,-3.2697,-3.2912,-3.2916,-3.2919,-3.2957,0,0,0,0,0,0,-3.2356,-3.2377,-3.241,-3.2455,-3.2476,-3.2583,-3.2544,-3.2549,-3.258,-3.2577,-3.2622,-3.2627,-3.2636,-3.2713,-3.2727,-3.2767,-3.2702,-3.2908,-3.2914,-3.2918,-3.2953,-3.2962,-3.297,0,0,0,0,0,-3.2349,-3.2416,-3.2412,-3.2429,-3.2518,-3.2586,-3.2597,-3.2607,-3.2583,-3.2615,-3.2636,-3.2625,-3.2754,-3.2721,-3.2737,-3.2778,-3.2906,-3.2912,-3.2918,-3.2949,-3.296,-3.297,0,0,0,0,0,0,-3.2373,-3.2422,-3.2418,-3.2502,-3.254,-3.2583,-3.2624,-3.2619,-3.2664,-3.2659,-3.2668,-3.2679,-3.2752,-3.2772,-3.2735,-3.286,-3.2826,-3.2835,-3.2844,-3.2855,-3.2864,-3.2857,-3.2706,0,0,0,0,0,-3.2388,-3.2441,-3.248,-3.2551,-3.257,-3.2594,-3.2624,-3.2629,-3.2668,-3.2683,-3.2709,-3.2746,-3.2794,-3.2826,-3.2873,-3.2956,-3.2964,-3.2992,-3.3,-3.3007,-3.3015,-3.3059,-3.3071,-3.294,-3.294,-3.294,0,0,-3.242,-3.2454,-3.2486,-3.2557,-3.2587,-3.2639,-3.2608,-3.2665,-3.2703,-3.2691,-3.2761,-3.2782,-3.2823,-3.2901,-3.2936,-3.292,-3.3053,-3.3015,-3.302,-3.3024,-3.3066,-3.3078,-3.3089,-3.2944,-3.2943,-3.2943,0,0,-3.2505,-3.2537,-3.2598,-3.2629,-3.2675,-3.269,-3.2705,-3.2748,-3.2762,-3.2833,-3.2825,-3.2869,-3.2953,-3.2982,-3.3008,-3.3103,-3.3094,-3.3118,-3.3162,-3.3205,-3.3215,-3.3224,-3.3257,-3.3268,-3.3125,-3.3125,-3.3126,0,-3.2539,-3.2619,-3.263,-3.2688,-3.2718,-3.2712,-3.2773,-3.2802,-3.286,-3.288,-3.2861,-3.2965,-3.2993,-3.3076,-3.31,-3.3121,-3.3137,-3.3112,-3.3213,-3.3222,-3.3231,-3.3262,-3.3274,-3.3128,-3.3128,-3.3127,-3.3127,0,-3.2657,-3.2712,-3.2756,-3.2814,-3.2849,-3.2908,-3.2927,-3.2961,-3.2963,-3.2979,-3.305,-3.3083,-3.3135,-3.3156,-3.3157,-3.3239,-3.3227,-3.3211,-3.3177,-3.3246,-3.3275,-3.3287,-3.3132,-3.3131,-3.313,-3.3129,0,0,-3.276,-3.2823,-3.2838,-3.2864,-3.2913,-3.2955,-3.3013,-3.3066,-3.3094,-3.3134,-3.3182,-3.3252,-3.3237,-3.3266,-3.3271,-3.3309,-3.3379,-3.3287,-3.3288,-3.3302,-3.347,-3.3481,-3.3495,-3.3374,-3.3376,-3.3378,-3.3466,0,-3.2848,-3.2952,-3.2964,-3.3056,-3.3106,-3.31,-3.315,-3.3185,-3.3201,-3.3245,-3.3263,-3.3312,-3.3289,-3.3307,-3.3343,-3.3363,-3.3413,-3.3357,-3.3416,-3.3418,-3.3405,-3.351,-3.3523,-3.3604,-3.3477,-3.3479,-3.3481,0,-3.2965,-3.301,-3.3107,-3.3149,-3.317,-3.3215,-3.3264,-3.3306,-3.3344,-3.3354,-3.3386,-3.3386,-3.3443,-3.3408,-3.3486,-3.3447,-3.3472,-3.3485,-3.3489,-3.3494,-3.3453,-3.3517,-3.363,-3.3642,-3.3499,-3.3497,-3.3496,0,-3.3029,-3.3113,-3.3182,-3.3204,-3.3254,-3.3286,-3.3308,-3.3344,-3.3375,-3.3416,-3.3436,-3.3483,-3.3508,-3.3544,-3.3555,-3.3529,-3.3633,-3.3598,-3.364,-3.364,-3.3662,-3.366,-3.378,-3.368,-3.368,-3.3679,-3.3679,0,-3.3126,-3.3185,-3.3211,-3.3253,-3.3319,-3.3331,-3.3395,-3.3415,-3.3447,-3.3492,-3.3489,-3.353,-3.3543,-3.3587,-3.3596,-3.3658,-3.367,-3.3678,-3.3679,-3.3677,-3.3676,-3.3693,-3.3687,-3.3683,-3.3682,-3.3681,-3.3681,0,-3.3208,-3.3228,-3.3302,-3.3344,-3.3355,-3.3402,-3.3437,-3.3476,-3.3492,-3.3549,-3.3562,-3.3587,-3.3637,-3.3653,-3.3713,-3.3719,-3.3792,-3.3789,-3.3779,-3.3779,-3.382,-3.3815,-3.3953,-3.3971,-3.3861,-3.3862,-3.3863,0,-3.3268,-3.3314,-3.3361,-3.3391,-3.3415,-3.3464,-3.3495,-3.3507,-3.3539,-3.3586,-3.362,-3.367,-3.3711,-3.3791,-3.3813,-3.3859,-3.3856,-3.3902,-3.3863,-3.3859,-3.3855,-3.3852,-3.3856,-3.3908,-3.391,-3.3911,-3.3911,0,-3.3372,-3.3379,-3.3425,-3.3474,-3.3512,-3.3551,-3.3588,-3.3612,-3.363,-3.3666,-3.3718,-3.375,-3.3812,-3.3861,-3.3908,-3.3928,-3.3922,-3.3923,-3.3935,-3.3933,-3.3925,-3.3929,-3.3798,-3.392,-3.3919,-3.3918,-3.3918,-3.3918,-3.3444,-3.3484,-3.3523,-3.3574,-3.3603,-3.3638,-3.3677,-3.3698,-3.3742,-3.3795,-3.3799,-3.3855,-3.3891,-3.3953,-3.3976,-3.4018,-3.4005,-3.4022,-3.4027,-3.403,-3.4033,-3.392,-3.4027,-3.4026,-3.4026,-3.4026,-3.4026,0,-3.3547,-3.3572,-3.3618,-3.3671,-3.371,-3.3703,-3.3743,-3.3776,-3.3826,-3.386,-3.3901,-3.396,-3.4007,-3.4033,-3.408,-3.4109,-3.4107,-3.4121,-3.4118,-3.4122,-3.4043,-3.4028,-3.4121,-3.4121,-3.4121,-3.4121,-3.4121,-3.4121,-3.3605,-3.3671,-3.3683,-3.3763,-3.3787,-3.3843,-3.3867,-3.3898,-3.3926,-3.3992,-3.4032,-3.4049,-3.4079,-3.4128,-3.4171,-3.4177,-3.4193,-3.4208,-3.4213,-3.4138,-3.4128,-3.4119,-3.4104,-3.4212,-3.4212,-3.4288,-3.4289,-3.4289]}]]